The request has been executed successfully.

The input positions has been matched with the following result:

Complete Path
Country code Length Speed Limit Forward Routing Segment Index Tile Id
52 218 30 32 1110201442
52 12 30 31 1110201442
52 13 0 29 1110201442
52 9 0 26 1110201442
52 18 0 27 1110201442
52 13 50 28 1110201442
52 80 50 33 1110201442
52 10 50 31 1110201441
52 58 50 35 1110201441
52 15 50 37 1110201441
52 44 50 38 1110201441
52 72 50 42 1110201441
52 52 50 46 1110201441
52 67 50 49 1110201441
52 35 50 51 1110201441
52 91 50 52 1110201441
52 64 50 60 1110201441
52 102 50 65 1110201441
52 35 50 71 1110201441
52 79 50 39 1110266977
52 119 50 67 1110266977
52 107 50 69 1110266977

Matched Locations
Input Id Latitude Longitude Heading Stable Path
1 49.626036429286216 6.114751597918702 251.56505 true Length= 218 SpeedLimitForward = 30 TileId=1110201442 RtgSegIdx=32
10 49.62590877313846 6.114160391597723 251.56505 true Length= 218 SpeedLimitForward = 30 TileId=1110201442 RtgSegIdx=32
20 49.62570130269805 6.113761841781496 165.96376 true Length= 218 SpeedLimitForward = 30 TileId=1110201442 RtgSegIdx=32
Length= 12 SpeedLimitForward = 30 TileId=1110201442 RtgSegIdx=31
Length= 13 SpeedLimitForward = 0 TileId=1110201442 RtgSegIdx=29
Length= 9 SpeedLimitForward = 0 TileId=1110201442 RtgSegIdx=26
Length= 18 SpeedLimitForward = 0 TileId=1110201442 RtgSegIdx=27
Length= 13 SpeedLimitForward = 50 TileId=1110201442 RtgSegIdx=28
30 49.625304465978985 6.114034449727031 152.44719 true Length= 13 SpeedLimitForward = 50 TileId=1110201442 RtgSegIdx=28
Length= 80 SpeedLimitForward = 50 TileId=1110201442 RtgSegIdx=33
40 49.62486073985232 6.1143673874261815 150.64224 true Length= 80 SpeedLimitForward = 50 TileId=1110201442 RtgSegIdx=33
Length= 10 SpeedLimitForward = 50 TileId=1110201441 RtgSegIdx=31
Length= 58 SpeedLimitForward = 50 TileId=1110201441 RtgSegIdx=35
50 49.624505047949924 6.114676247014029 150.64224 true Length= 58 SpeedLimitForward = 50 TileId=1110201441 RtgSegIdx=35
60 49.6241235050943 6.115045678901683 149.74356 true Length= 58 SpeedLimitForward = 50 TileId=1110201441 RtgSegIdx=35
Length= 15 SpeedLimitForward = 50 TileId=1110201441 RtgSegIdx=37
Length= 44 SpeedLimitForward = 50 TileId=1110201441 RtgSegIdx=38
80 49.623345575905546 6.115777292538687 142.43141 true Length= 44 SpeedLimitForward = 50 TileId=1110201441 RtgSegIdx=38
Length= 72 SpeedLimitForward = 50 TileId=1110201441 RtgSegIdx=42
Length= 52 SpeedLimitForward = 50 TileId=1110201441 RtgSegIdx=46
110 49.622632168764966 6.116621564964823 142.59465 true Length= 52 SpeedLimitForward = 50 TileId=1110201441 RtgSegIdx=46
Length= 67 SpeedLimitForward = 50 TileId=1110201441 RtgSegIdx=49
120 49.621886457669035 6.117370578923927 146.30994 true Length= 67 SpeedLimitForward = 50 TileId=1110201441 RtgSegIdx=49
Length= 35 SpeedLimitForward = 50 TileId=1110201441 RtgSegIdx=51
Length= 91 SpeedLimitForward = 50 TileId=1110201441 RtgSegIdx=52
140 49.6211340699019 6.11817367433563 143.84181 true Length= 91 SpeedLimitForward = 50 TileId=1110201441 RtgSegIdx=52
Length= 64 SpeedLimitForward = 50 TileId=1110201441 RtgSegIdx=60
Length= 102 SpeedLimitForward = 50 TileId=1110201441 RtgSegIdx=65
160 49.62040551464875 6.118995486281988 127.874985 true Length= 102 SpeedLimitForward = 50 TileId=1110201441 RtgSegIdx=65
Length= 35 SpeedLimitForward = 50 TileId=1110201441 RtgSegIdx=71
190 49.619673415234615 6.1203305240445305 126.57303 true Length= 35 SpeedLimitForward = 50 TileId=1110201441 RtgSegIdx=71
Length= 79 SpeedLimitForward = 50 TileId=1110266977 RtgSegIdx=39
Length= 119 SpeedLimitForward = 50 TileId=1110266977 RtgSegIdx=67
210 49.61904596983925 6.121722417135722 110.556046 true Length= 119 SpeedLimitForward = 50 TileId=1110266977 RtgSegIdx=67
Length= 107 SpeedLimitForward = 50 TileId=1110266977 RtgSegIdx=69